Flag for Canada Weather past 2 weeks in Laval, Quebec, Canada

Now
63 °F

Fog.


Feels Like: 63 °F
Forecast: 64 / 80 °F
Wind: 6 mph from West

Location: Montreal / Mirabel

Current Time: Aug 31, 2015 at 7:29:44 AM

Latest Report: Aug 31, 2015 at 6:00 AM


Visibility: 6 mi

Pressure: 29.90 "Hg

Humidity: 100%

Dew point: 63 °F

Location of LavalLocation

Historic Weather in Laval — Graph

°F

Laval temperature yesterday

Maximum temperature yesterday: 75 °F (at 3:00 PM)
Minimum temperature yesterday: 63 °F (at 3:00 AM)
Average temperature yesterday: 68 °F

Past Weeks' High & Low Weather Summary

 TemperatureHumidityPressure
High88 °F (Aug 19, 4:00 PM)100% (Aug 16, 6:00 AM)30.18 "Hg (Aug 16, 6:00 AM)
Low54 °F (Aug 28, 5:00 AM)48% (Aug 23, 5:00 PM)29.78 "Hg (Aug 24, 4:00 PM)
Average69 °F81%30.00 "Hg
* Reported Aug 16 6:00 AM — Aug 31 6:00 AM, Laval, Weather by CustomWeather, © 2015

Note: Actual official high and low records may vary slightly from our data, if they occured in-between our weather recording intervals... More about our weather records

Advertising

Laval weather history for previous 24 hours

 ConditionsComfort  
Time TempWeatherWind HumidityBarometerVisibility
6:00 AM
Mon, Aug 31
63 °FFog.6 mph100%29.90 "Hg6 mi
5:00 AM63 °FPartly cloudy.3 mph94%29.91 "Hg10 mi
4:00 AM63 °FPassing clouds.5 mph94%29.92 "Hg15 mi
3:00 AM63 °FPassing clouds.6 mph94%29.93 "Hg15 mi
2:00 AM64 °FClear.3 mph88%29.95 "Hg25 mi
1:00 AM64 °FClear.3 mph88%29.96 "Hg25 mi
12:00 AM66 °FPassing clouds.5 mph88%29.97 "Hg25 mi
11:00 PM
Sun, Aug 30
66 °FPassing clouds.2 mph88%29.97 "Hg25 mi
10:00 PM68 °FPassing clouds.7 mph83%29.97 "Hg25 mi
9:00 PM68 °FOvercast.5 mph83%29.99 "Hg25 mi
8:00 PM68 °FPartly sunny.No wind83%29.98 "Hg25 mi
7:00 PM72 °FPartly sunny.2 mph69%29.98 "Hg25 mi
6:00 PM75 °FPartly sunny.5 mph61%29.99 "Hg25 mi
5:00 PM75 °FPassing clouds.8 mph61%30.00 "Hg25 mi
4:00 PM75 °FPassing clouds.8 mph61%30.01 "Hg25 mi
3:00 PM75 °FScattered clouds.7 mph61%30.02 "Hg25 mi
2:00 PM73 °FBroken clouds.10 mph69%30.03 "Hg25 mi
1:00 PM72 °FMore clouds than sun.8 mph73%30.05 "Hg25 mi
12:00 PM72 °FPartly sunny.7 mph69%30.06 "Hg25 mi
11:00 AM72 °FPartly sunny.7 mph73%30.07 "Hg15 mi
10:00 AM68 °FPartly sunny.5 mph83%30.07 "Hg15 mi
9:00 AM66 °FFog.6 mph88%30.07 "Hg6 mi
8:00 AM64 °FFog.3 mph94%30.06 "Hg6 mi
7:00 AM63 °FFog.5 mph100%30.06 "Hg4 mi
Weather by CustomWeather, © 2015

See weather overviewHow to use our weather pages